Weather History for Lille, France

Change the Weather History Date:

Sunday, August 11, 2013

  Actual Average Record
Temperature  
Mean Temperature 61 °F -  
Max Temperature 72 °F 70 °F 93 °F (2003)
Min Temperature 50 °F 54 °F 50 °F (2013)
Degree Days  
Heating Degree Days 4    
Growing Degree Days 11 (Base 50)    
Moisture  
Dew Point 53 °F    
Average Humidity 73    
Maximum Humidity 94    
Minimum Humidity 51    
Precipitation  
Precipitation 0.00 in - - ()
Sea Level Pressure  
Sea Level Pressure 30.10 in    
Wind  
Wind Speed 6 mph ()    
Max Wind Speed 17 mph    
Max Gust Speed -    
Visibility 6.6 miles    
Events Rain    
Averages and records for this station are not official NWS values.
T = Trace of Precipitation, MM = Missing Value Source: Averaged Metar Reports

Daily Weather History Graph

Daily Weather History Graph

Search for Another Location

Airport:

Trip Planner

Search our weather history database for the weather conditions in past years. The results will help you decide how hot, cold, wet, or windy it might be!

Date:

Astronomy

Aug. 11, 2013 Rise Set
Actual Time 6:29 AM CEST 9:14 PM CEST
Civil Twilight 5:52 AM CEST 9:51 PM CEST
Nautical Twilight 5:04 AM CEST 10:39 PM CEST
Astronomical Twilight 4:06 AM CEST 11:37 PM CEST
Moon 11:38 AM CEST (8/11) 10:42 PM CEST (8/11)
Length of Visible Light 15h 59m
Length of Day
14h 45m
Waxing Crescent, 19% of the Moon is Illuminated
Aug 11
Waxing Crescent
Aug 14
First Quarter
Aug 21
Full
Aug 28
Last Quarter
Sep 5
New

Hourly Weather History & Observations

Time (CEST) Temp. Dew Point Humidity Pressure Visibility Wind Dir Wind Speed Gust Speed Precip Events Conditions
12:00 AM 57.2 °F 46.4 °F 67% 30.18 in - West 4.6 mph - N/A   Clear
12:30 AM 57.2 °F 46.4 °F 67% 30.18 in - West 4.6 mph - N/A   Clear
1:00 AM 55.4 °F 46.4 °F 72% 30.18 in - Variable 2.3 mph - N/A   Clear
2:00 AM 53 °F 46 °F 69% 30.18 in 31 mi South 1.2 mph - -  
2:00 AM 53.6 °F 46.4 °F 77% 30.15 in - Variable 1.2 mph - N/A   Clear
2:30 AM 51.8 °F 46.4 °F 82% 30.15 in 6.2 mi SSW 1.2 mph - N/A   Unknown
3:00 AM 51.8 °F 46.4 °F 82% 30.15 in 6.2 mi SSE 2.3 mph - N/A   Unknown
3:30 AM 51.8 °F 46.4 °F 82% 30.15 in 6.2 mi Variable 1.2 mph - N/A   Unknown
4:00 AM 51.8 °F 46.4 °F 82% 30.12 in 6.2 mi South 3.5 mph - N/A   Unknown
4:30 AM 50.0 °F 46.4 °F 87% 30.12 in 6.2 mi South 3.5 mph - N/A   Unknown
5:00 AM 50.0 °F 48.2 °F 94% 30.12 in - South 2.3 mph - N/A   Clear
6:00 AM 51.8 °F 50.0 °F 94% 30.12 in - South 4.6 mph - N/A   Clear
6:30 AM 51.8 °F 50.0 °F 94% 30.12 in - South 5.8 mph - N/A   Clear
7:00 AM 53.6 °F 51.8 °F 94% 30.12 in - South 5.8 mph - N/A   Clear
7:30 AM 53.6 °F 51.8 °F 94% 30.12 in - South 5.8 mph - N/A   Clear
8:00 AM 54 °F 52 °F 89% 30.14 in 12 mi South 6.9 mph - -   Partly Cloudy
8:00 AM 55.4 °F 51.8 °F 88% 30.12 in - South 6.9 mph - N/A   Clear
8:30 AM 55.4 °F 53.6 °F 94% 30.12 in - SSW 5.8 mph - N/A   Clear
9:00 AM 57.2 °F 53.6 °F 88% 30.12 in - SSW 6.9 mph - N/A   Clear
10:00 AM 60.8 °F 55.4 °F 82% 30.12 in 6.2 mi SW 8.1 mph - N/A   Mostly Cloudy
10:30 AM 64.4 °F 55.4 °F 73% 30.12 in 6.2 mi SW 8.1 mph - N/A   Mostly Cloudy
11:00 AM 64.4 °F 55.4 °F 73% 30.12 in 6.2 mi WSW 10.4 mph - N/A   Mostly Cloudy
11:30 AM 66.2 °F 55.4 °F 68% 30.12 in 6.2 mi SW 10.4 mph - N/A   Mostly Cloudy
12:00 PM 64.4 °F 55.4 °F 73% 30.12 in 6.2 mi SW 11.5 mph - N/A   Mostly Cloudy
12:30 PM 64.4 °F 55.4 °F 73% 30.12 in 6.2 mi SW 10.4 mph - N/A Rain Light Rain
1:00 PM 64.4 °F 57.2 °F 77% 30.12 in 6.2 mi WSW 9.2 mph - N/A Rain Light Rain Showers
1:30 PM 66.2 °F 57.2 °F 73% 30.09 in 6.2 mi WSW 8.1 mph - N/A   Mostly Cloudy
2:00 PM 69 °F 55 °F 52% 30.10 in 12 mi SW 9.2 mph - - Rain Light Rain Showers
2:00 PM 68.0 °F 55.4 °F 64% 30.09 in 6.2 mi SW 9.2 mph - N/A   Mostly Cloudy
2:30 PM 69.8 °F 53.6 °F 56% 30.09 in 6.2 mi SW 11.5 mph - N/A   Mostly Cloudy
3:00 PM 69.8 °F 53.6 °F 56% 30.09 in 6.2 mi WSW 12.7 mph - N/A   Mostly Cloudy
3:30 PM 69.8 °F 53.6 °F 56% 30.06 in 6.2 mi WSW 9.2 mph - N/A   Mostly Cloudy
4:00 PM 71.6 °F 55.4 °F 57% 30.06 in 6.2 mi WSW 16.1 mph - N/A   Mostly Cloudy
4:30 PM 69.8 °F 55.4 °F 60% 30.06 in 6.2 mi West 16.1 mph - N/A   Mostly Cloudy
5:00 PM 71.6 °F 55.4 °F 57% 30.06 in 6.2 mi WSW 17.3 mph - N/A   Scattered Clouds
5:30 PM 69.8 °F 55.4 °F 60% 30.06 in 6.2 mi WSW 12.7 mph - N/A   Mostly Cloudy
6:00 PM 71.6 °F 55.4 °F 57% 30.04 in 6.2 mi West 13.8 mph - N/A   Mostly Cloudy
6:30 PM 71.6 °F 55.4 °F 57% 30.04 in 6.2 mi West 15.0 mph - N/A   Mostly Cloudy
7:00 PM 71.6 °F 55.4 °F 57% 30.04 in 6.2 mi West 16.1 mph - N/A   Mostly Cloudy
7:30 PM 69.8 °F 55.4 °F 60% 30.04 in 6.2 mi West 15.0 mph - N/A   Mostly Cloudy
8:00 PM 68 °F 54 °F 51% 30.05 in 25 mi West 17.3 mph - -   Partly Cloudy
8:00 PM 68.0 °F 53.6 °F 60% 30.04 in 6.2 mi West 17.3 mph - N/A   Scattered Clouds
8:30 PM 68.0 °F 53.6 °F 60% 30.04 in - West 13.8 mph - N/A   Clear
9:00 PM 64.4 °F 55.4 °F 73% 30.04 in - West 10.4 mph - N/A   Clear
9:30 PM 64.4 °F 55.4 °F 73% 30.04 in - West 6.9 mph - N/A   Clear
10:00 PM 62.6 °F 55.4 °F 77% 30.06 in - West 6.9 mph - N/A   Clear
10:30 PM 62.6 °F 55.4 °F 77% 30.06 in - WSW 5.8 mph - N/A   Clear
11:00 PM 62.6 °F 55.4 °F 77% 30.06 in - WSW 6.9 mph - N/A   Clear
11:30 PM 60.8 °F 55.4 °F 82% 30.04 in - West 6.9 mph - N/A   Clear